owner,sensor,date,latitude,longitude,vertical_datum,mass_concentration_of_oxygen_in_sea_water,qcFlag 
SCCF RECON,ioos:station:SCCF:12:1,2010-03-01T00:00:00Z,26.4966,-82.1479,1.731,7.87,1111122 
SCCF RECON,ioos:station:SCCF:12:1,2010-03-01T01:00:00Z,26.4966,-82.1479,1.756,7.78,1111122 
SCCF RECON,ioos:station:SCCF:12:1,2010-03-01T02:00:00Z,26.4966,-82.1479,1.87,7.9,1111122 
SCCF RECON,ioos:station:SCCF:12:1,2010-03-01T03:00:00Z,26.4966,-82.1479,2.05,7.84,1111122 
SCCF RECON,ioos:station:SCCF:12:1,2010-03-01T04:00:00Z,26.4966,-82.1479,2.21,7.64,1111122 
SCCF RECON,ioos:station:SCCF:12:1,2010-03-01T05:00:00Z,26.4966,-82.1479,2.34,7.73,1111122 
SCCF RECON,ioos:station:SCCF:12:1,2010-03-01T06:00:00Z,26.4966,-82.1479,2.42,7.78,1111122 
SCCF RECON,ioos:station:SCCF:12:1,2010-03-01T07:00:00Z,26.4966,-82.1479,2.405,7.68,1111122 
SCCF RECON,ioos:station:SCCF:12:1,2010-03-01T08:00:00Z,26.4966,-82.1479,2.275,7.52,1111122 
SCCF RECON,ioos:station:SCCF:12:1,2010-03-01T09:00:00Z,26.4966,-82.1479,2.11,7.5,1111122 
SCCF RECON,ioos:station:SCCF:12:1,2010-03-01T10:00:00Z,26.4966,-82.1479,1.96,7.43,1111122 
SCCF RECON,ioos:station:SCCF:12:1,2010-03-01T11:00:00Z,26.4966,-82.1479,1.848,7.43,1111122 
SCCF RECON,ioos:station:SCCF:12:1,2010-03-01T12:00:00Z,26.4966,-82.1479,1.755,7.39,1111122 
SCCF RECON,ioos:station:SCCF:12:1,2010-03-01T13:00:00Z,26.4966,-82.1479,1.7,7.5,1111122 
SCCF RECON,ioos:station:SCCF:12:1,2010-03-01T14:00:00Z,26.4966,-82.1479,1.74,7.51,1111122 
SCCF RECON,ioos:station:SCCF:12:1,2010-03-01T15:00:00Z,26.4966,-82.1479,1.903,7.56,1111122 
SCCF RECON,ioos:station:SCCF:12:1,2010-03-01T16:00:00Z,26.4966,-82.1479,2.079,7.66,1111122 
SCCF RECON,ioos:station:SCCF:12:1,2010-03-01T17:00:00Z,26.4966,-82.1479,2.191,7.79,1111122 
SCCF RECON,ioos:station:SCCF:12:1,2010-03-01T18:00:00Z,26.4966,-82.1479,2.26,7.78,1111122 
SCCF RECON,ioos:station:SCCF:12:1,2010-03-01T19:00:00Z,26.4966,-82.1479,2.264,7.83,1111122 
SCCF RECON,ioos:station:SCCF:12:1,2010-03-01T20:00:00Z,26.4966,-82.1479,2.194,7.85,1111122 
SCCF RECON,ioos:station:SCCF:12:1,2010-03-01T21:00:00Z,26.4966,-82.1479,2.061,7.71,1111122 
SCCF RECON,ioos:station:SCCF:12:1,2010-03-01T22:00:00Z,26.4966,-82.1479,1.92,7.82,1111122 
SCCF RECON,ioos:station:SCCF:12:1,2010-03-01T23:00:00Z,26.4966,-82.1479,1.81,7.65,1111122 
SCCF RECON,ioos:station:SCCF:12:1,2010-03-02T00:00:00Z,26.4966,-82.1479,1.71,7.66,1111122 
SCCF RECON,ioos:station:SCCF:12:1,2010-03-02T01:00:00Z,26.4966,-82.1479,1.66,7.68,1111122 
SCCF RECON,ioos:station:SCCF:12:1,2010-03-02T02:00:00Z,26.4966,-82.1479,1.69,7.67,1111122 
SCCF RECON,ioos:station:SCCF:12:1,2010-03-02T03:00:00Z,26.4966,-82.1479,1.85,7.7,1111122 
SCCF RECON,ioos:station:SCCF:12:1,2010-03-02T04:00:00Z,26.4966,-82.1479,2.04,7.72,1111122 
SCCF RECON,ioos:station:SCCF:12:1,2010-03-02T05:00:00Z,26.4966,-82.1479,2.2,7.64,1111122 
SCCF RECON,ioos:station:SCCF:12:1,2010-03-02T06:00:00Z,26.4966,-82.1479,2.314,7.57,1111122 
SCCF RECON,ioos:station:SCCF:12:1,2010-03-02T07:00:00Z,26.4966,-82.1479,2.36,7.6,1111122 
SCCF RECON,ioos:station:SCCF:12:1,2010-03-02T08:00:00Z,26.4966,-82.1479,2.32,7.68,1111122 
SCCF RECON,ioos:station:SCCF:12:1,2010-03-02T09:00:00Z,26.4966,-82.1479,2.19,7.63,1111122 
SCCF RECON,ioos:station:SCCF:12:1,2010-03-02T10:00:00Z,26.4966,-82.1479,2.021,7.8,1111122 
SCCF RECON,ioos:station:SCCF:12:1,2010-03-02T11:00:00Z,26.4966,-82.1479,1.886,7.84,1111122 
SCCF RECON,ioos:station:SCCF:12:1,2010-03-02T12:00:00Z,26.4966,-82.1479,1.817,7.79,1111122 
SCCF RECON,ioos:station:SCCF:12:1,2010-03-02T13:00:00Z,26.4966,-82.1479,1.845,7.76,1111122 
SCCF RECON,ioos:station:SCCF:12:1,2010-03-02T14:00:00Z,26.4966,-82.1479,1.946,7.73,1111122 
SCCF RECON,ioos:station:SCCF:12:1,2010-03-02T15:00:00Z,26.4966,-82.1479,2.15,7.71,1111122 
SCCF RECON,ioos:station:SCCF:12:1,2010-03-02T16:00:00Z,26.4966,-82.1479,2.27,7.74,1111122 
SCCF RECON,ioos:station:SCCF:12:1,2010-03-02T17:00:00Z,26.4966,-82.1479,2.39,7.71,1111122 
SCCF RECON,ioos:station:SCCF:12:1,2010-03-02T18:00:00Z,26.4966,-82.1479,2.45,7.61,1111122 
SCCF RECON,ioos:station:SCCF:12:1,2010-03-02T19:00:00Z,26.4966,-82.1479,2.43,7.69,1111122 
SCCF RECON,ioos:station:SCCF:12:1,2010-03-02T20:00:00Z,26.4966,-82.1479,2.379,7.67,1111122 
SCCF RECON,ioos:station:SCCF:12:1,2010-03-02T21:00:00Z,26.4966,-82.1479,2.27,7.72,1111122 
SCCF RECON,ioos:station:SCCF:12:1,2010-03-02T22:00:00Z,26.4966,-82.1479,2.15,7.76,1111122 
SCCF RECON,ioos:station:SCCF:12:1,2010-03-02T23:00:00Z,26.4966,-82.1479,2.027,7.75,1111122 
SCCF RECON,ioos:station:SCCF:12:1,2010-03-03T00:00:00Z,26.4966,-82.1479,1.914,7.73,1111122 
SCCF RECON,ioos:station:SCCF:12:1,2010-03-03T01:00:00Z,26.4966,-82.1479,1.815,7.59,1111122 
SCCF RECON,ioos:station:SCCF:12:1,2010-03-03T02:00:00Z,26.4966,-82.1479,1.741,7.6,1111122 
SCCF RECON,ioos:station:SCCF:12:1,2010-03-03T03:00:00Z,26.4966,-82.1479,1.734,7.63,1111122 
SCCF RECON,ioos:station:SCCF:12:1,2010-03-03T04:00:00Z,26.4966,-82.1479,1.82,7.54,1111122 
SCCF RECON,ioos:station:SCCF:12:1,2010-03-03T05:00:00Z,26.4966,-82.1479,1.952,7.39,1111122 
SCCF RECON,ioos:station:SCCF:12:1,2010-03-03T06:00:00Z,26.4966,-82.1479,2.048,7.43,1111122 
SCCF RECON,ioos:station:SCCF:12:1,2010-03-03T07:00:00Z,26.4966,-82.1479,2.133,7.4,1111122 
SCCF RECON,ioos:station:SCCF:12:1,2010-03-03T08:00:00Z,26.4966,-82.1479,2.189,7.44,1111122 
SCCF RECON,ioos:station:SCCF:12:1,2010-03-03T09:00:00Z,26.4966,-82.1479,2.162,7.5,1111122 
SCCF RECON,ioos:station:SCCF:12:1,2010-03-03T10:00:00Z,26.4966,-82.1479,2.061,7.48,1111122 
SCCF RECON,ioos:station:SCCF:12:1,2010-03-03T11:00:00Z,26.4966,-82.1479,1.949,7.5,1111122 
SCCF RECON,ioos:station:SCCF:12:1,2010-03-03T12:00:00Z,26.4966,-82.1479,1.839,7.48,1111122 
SCCF RECON,ioos:station:SCCF:12:1,2010-03-03T13:00:00Z,26.4966,-82.1479,1.753,7.49,1111122 
SCCF RECON,ioos:station:SCCF:12:1,2010-03-03T14:00:00Z,26.4966,-82.1479,1.705,7.57,1111122 
SCCF RECON,ioos:station:SCCF:12:1,2010-03-03T15:00:00Z,26.4966,-82.1479,1.724,7.59,1111122 
SCCF RECON,ioos:station:SCCF:12:1,2010-03-03T16:00:00Z,26.4966,-82.1479,1.83,7.6,1111122 
SCCF RECON,ioos:station:SCCF:12:1,2010-03-03T17:00:00Z,26.4966,-82.1479,1.969,7.61,1111122 
SCCF RECON,ioos:station:SCCF:12:1,2010-03-03T18:00:00Z,26.4966,-82.1479,2.095,7.7,1111122 
SCCF RECON,ioos:station:SCCF:12:1,2010-03-03T19:00:00Z,26.4966,-82.1479,2.167,7.74,1111122 
SCCF RECON,ioos:station:SCCF:12:1,2010-03-03T20:00:00Z,26.4966,-82.1479,2.189,7.8,1111122 
SCCF RECON,ioos:station:SCCF:12:1,2010-03-03T21:00:00Z,26.4966,-82.1479,2.135,7.81,1111122 
SCCF RECON,ioos:station:SCCF:12:1,2010-03-03T22:00:00Z,26.4966,-82.1479,2.031,7.82,1111122 
SCCF RECON,ioos:station:SCCF:12:1,2010-03-03T23:00:00Z,26.4966,-82.1479,1.915,7.82,1111122 
SCCF RECON,ioos:station:SCCF:12:1,2010-03-04T00:00:00Z,26.4966,-82.1479,1.821,7.8,1111122 
SCCF RECON,ioos:station:SCCF:12:1,2010-03-04T01:00:00Z,26.4966,-82.1479,1.734,7.75,1111122 
SCCF RECON,ioos:station:SCCF:12:1,2010-03-04T02:00:00Z,26.4966,-82.1479,1.645,7.75,1111122 
SCCF RECON,ioos:station:SCCF:12:1,2010-03-04T03:00:00Z,26.4966,-82.1479,1.582,7.71,1111122 
SCCF RECON,ioos:station:SCCF:12:1,2010-03-04T04:00:00Z,26.4966,-82.1479,1.579,7.65,1111122 
SCCF RECON,ioos:station:SCCF:12:1,2010-03-04T05:00:00Z,26.4966,-82.1479,1.674,7.51,1111122 
SCCF RECON,ioos:station:SCCF:12:1,2010-03-04T06:00:00Z,26.4966,-82.1479,1.839,7.42,1111122 
SCCF RECON,ioos:station:SCCF:12:1,2010-03-04T07:00:00Z,26.4966,-82.1479,1.983,7.37,1111122 
SCCF RECON,ioos:station:SCCF:12:1,2010-03-04T08:00:00Z,26.4966,-82.1479,2.086,7.36,1111122 
SCCF RECON,ioos:station:SCCF:12:1,2010-03-04T09:00:00Z,26.4966,-82.1479,2.127,7.38,1111122 
SCCF RECON,ioos:station:SCCF:12:1,2010-03-04T10:00:00Z,26.4966,-82.1479,2.092,7.5,1111122 
SCCF RECON,ioos:station:SCCF:12:1,2010-03-04T11:00:00Z,26.4966,-82.1479,2.014,7.47,1111122 
SCCF RECON,ioos:station:SCCF:12:1,2010-03-04T12:00:00Z,26.4966,-82.1479,1.926,7.51,1111122 
SCCF RECON,ioos:station:SCCF:12:1,2010-03-04T13:00:00Z,26.4966,-82.1479,1.878,7.54,1111122 
SCCF RECON,ioos:station:SCCF:12:1,2010-03-04T14:00:00Z,26.4966,-82.1479,1.883,7.47,1111122 
SCCF RECON,ioos:station:SCCF:12:1,2010-03-04T15:00:00Z,26.4966,-82.1479,1.85,7.56,1111122 
SCCF RECON,ioos:station:SCCF:12:1,2010-03-04T16:00:00Z,26.4966,-82.1479,1.871,7.63,1111122 
SCCF RECON,ioos:station:SCCF:12:1,2010-03-04T17:00:00Z,26.4966,-82.1479,1.952,7.79,1111122 
SCCF RECON,ioos:station:SCCF:12:1,2010-03-04T18:00:00Z,26.4966,-82.1479,2.079,7.84,1111122 
SCCF RECON,ioos:station:SCCF:12:1,2010-03-04T19:00:00Z,26.4966,-82.1479,2.179,7.84,1111122 
SCCF RECON,ioos:station:SCCF:12:1,2010-03-04T20:00:00Z,26.4966,-82.1479,2.224,7.85,1111122 
SCCF RECON,ioos:station:SCCF:12:1,2010-03-04T21:00:00Z,26.4966,-82.1479,2.19,7.96,1111122 
SCCF RECON,ioos:station:SCCF:12:1,2010-03-04T22:00:00Z,26.4966,-82.1479,2.105,7.99,1111122 
SCCF RECON,ioos:station:SCCF:12:1,2010-03-04T23:00:00Z,26.4966,-82.1479,2.002,8.03,1111122 
SCCF RECON,ioos:station:SCCF:12:1,2010-03-05T00:00:00Z,26.4966,-82.1479,1.898,7.98,1111122 
SCCF RECON,ioos:station:SCCF:12:1,2010-03-05T01:00:00Z,26.4966,-82.1479,1.792,7.94,1111122 
SCCF RECON,ioos:station:SCCF:12:1,2010-03-05T02:00:00Z,26.4966,-82.1479,1.694,7.98,1111122 
SCCF RECON,ioos:station:SCCF:12:1,2010-03-05T03:00:00Z,26.4966,-82.1479,1.6,7.94,1111122 
SCCF RECON,ioos:station:SCCF:12:1,2010-03-05T04:00:00Z,26.4966,-82.1479,1.548,7.85,1111122 
SCCF RECON,ioos:station:SCCF:12:1,2010-03-05T05:00:00Z,26.4966,-82.1479,1.567,7.81,1111122 
SCCF RECON,ioos:station:SCCF:12:1,2010-03-05T06:00:00Z,26.4966,-82.1479,1.675,7.73,1111122 
SCCF RECON,ioos:station:SCCF:12:1,2010-03-05T07:00:00Z,26.4966,-82.1479,1.793,7.56,1111122 
SCCF RECON,ioos:station:SCCF:12:1,2010-03-05T08:00:00Z,26.4966,-82.1479,1.89,7.6,1111122 
SCCF RECON,ioos:station:SCCF:12:1,2010-03-05T09:00:00Z,26.4966,-82.1479,1.959,7.69,1111122 
SCCF RECON,ioos:station:SCCF:12:1,2010-03-05T10:00:00Z,26.4966,-82.1479,1.961,7.58,1111122 
SCCF RECON,ioos:station:SCCF:12:1,2010-03-05T11:00:00Z,26.4966,-82.1479,1.942,7.66,1111122 
SCCF RECON,ioos:station:SCCF:12:1,2010-03-05T12:00:00Z,26.4966,-82.1479,1.894,7.64,1111122 
SCCF RECON,ioos:station:SCCF:12:1,2010-03-05T13:00:00Z,26.4966,-82.1479,1.848,7.64,1111122 
SCCF RECON,ioos:station:SCCF:12:1,2010-03-05T14:00:00Z,26.4966,-82.1479,1.845,7.66,1111122 
SCCF RECON,ioos:station:SCCF:12:1,2010-03-05T15:00:00Z,26.4966,-82.1479,1.88,7.66,1111122 
SCCF RECON,ioos:station:SCCF:12:1,2010-03-05T16:00:00Z,26.4966,-82.1479,1.93,7.72,1111122 
SCCF RECON,ioos:station:SCCF:12:1,2010-03-05T17:00:00Z,26.4966,-82.1479,1.979,7.76,1111122 
SCCF RECON,ioos:station:SCCF:12:1,2010-03-05T18:00:00Z,26.4966,-82.1479,2.06,7.85,1111122 
SCCF RECON,ioos:station:SCCF:12:1,2010-03-05T19:00:00Z,26.4966,-82.1479,2.158,7.94,1111122 
SCCF RECON,ioos:station:SCCF:12:1,2010-03-05T20:00:00Z,26.4966,-82.1479,2.236,7.94,1111122 
SCCF RECON,ioos:station:SCCF:12:1,2010-03-05T21:00:00Z,26.4966,-82.1479,2.257,7.97,1111122 
SCCF RECON,ioos:station:SCCF:12:1,2010-03-05T22:00:00Z,26.4966,-82.1479,2.2,7.96,1111122 
SCCF RECON,ioos:station:SCCF:12:1,2010-03-05T23:00:00Z,26.4966,-82.1479,2.104,7.94,1111122 
SCCF RECON,ioos:station:SCCF:12:1,2010-03-06T00:00:00Z,26.4966,-82.1479,2.011,7.95,1111122 
SCCF RECON,ioos:station:SCCF:12:1,2010-03-06T01:00:00Z,26.4966,-82.1479,1.928,7.96,1111122 
SCCF RECON,ioos:station:SCCF:12:1,2010-03-06T02:00:00Z,26.4966,-82.1479,1.842,7.93,1111122 
SCCF RECON,ioos:station:SCCF:12:1,2010-03-06T03:00:00Z,26.4966,-82.1479,1.756,8.02,1111122 
SCCF RECON,ioos:station:SCCF:12:1,2010-03-06T04:00:00Z,26.4966,-82.1479,1.682,8.05,1111122 
SCCF RECON,ioos:station:SCCF:12:1,2010-03-06T05:00:00Z,26.4966,-82.1479,1.619,8.03,1111122 
SCCF RECON,ioos:station:SCCF:12:1,2010-03-06T06:00:00Z,26.4966,-82.1479,1.596,7.97,1111122 
SCCF RECON,ioos:station:SCCF:12:1,2010-03-06T07:00:00Z,26.4966,-82.1479,1.656,7.89,1111122 
SCCF RECON,ioos:station:SCCF:12:1,2010-03-06T08:00:00Z,26.4966,-82.1479,1.744,7.85,1111122 
SCCF RECON,ioos:station:SCCF:12:1,2010-03-06T09:00:00Z,26.4966,-82.1479,1.796,7.8,1111122 
SCCF RECON,ioos:station:SCCF:12:1,2010-03-06T10:00:00Z,26.4966,-82.1479,1.813,7.82,1111122 
SCCF RECON,ioos:station:SCCF:12:1,2010-03-06T11:00:00Z,26.4966,-82.1479,1.827,7.77,1111122 
SCCF RECON,ioos:station:SCCF:12:1,2010-03-06T12:00:00Z,26.4966,-82.1479,1.838,7.75,1111122 
SCCF RECON,ioos:station:SCCF:12:1,2010-03-06T13:00:00Z,26.4966,-82.1479,1.83,7.74,1111122 
SCCF RECON,ioos:station:SCCF:12:1,2010-03-06T14:00:00Z,26.4966,-82.1479,1.817,7.79,1111122 
SCCF RECON,ioos:station:SCCF:12:1,2010-03-06T15:00:00Z,26.4966,-82.1479,1.83,7.84,1111122 
SCCF RECON,ioos:station:SCCF:12:1,2010-03-06T16:00:00Z,26.4966,-82.1479,1.869,7.96,1111122 
SCCF RECON,ioos:station:SCCF:12:1,2010-03-06T17:00:00Z,26.4966,-82.1479,1.918,8.0,1111122 
SCCF RECON,ioos:station:SCCF:12:1,2010-03-06T18:00:00Z,26.4966,-82.1479,1.989,8.0,1111122 
SCCF RECON,ioos:station:SCCF:12:1,2010-03-06T19:00:00Z,26.4966,-82.1479,2.071,8.1,1111122 
SCCF RECON,ioos:station:SCCF:12:1,2010-03-06T20:00:00Z,26.4966,-82.1479,2.152,8.09,1111122 
SCCF RECON,ioos:station:SCCF:12:1,2010-03-06T21:00:00Z,26.4966,-82.1479,2.217,8.09,1111122 
SCCF RECON,ioos:station:SCCF:12:1,2010-03-06T22:00:00Z,26.4966,-82.1479,2.227,8.11,1111122 
SCCF RECON,ioos:station:SCCF:12:1,2010-03-06T23:00:00Z,26.4966,-82.1479,2.178,8.08,1111122 
SCCF RECON,ioos:station:SCCF:12:1,2010-03-07T00:00:00Z,26.4966,-82.1479,2.103,8.04,1111122 
SCCF RECON,ioos:station:SCCF:12:1,2010-03-07T01:00:00Z,26.4966,-82.1479,2.023,8.12,1111122 
SCCF RECON,ioos:station:SCCF:12:1,2010-03-07T02:00:00Z,26.4966,-82.1479,1.945,8.1,1111122 
SCCF RECON,ioos:station:SCCF:12:1,2010-03-07T03:00:00Z,26.4966,-82.1479,1.858,8.1,1111122 
SCCF RECON,ioos:station:SCCF:12:1,2010-03-07T04:00:00Z,26.4966,-82.1479,1.767,8.13,1111122 
SCCF RECON,ioos:station:SCCF:12:1,2010-03-07T05:00:00Z,26.4966,-82.1479,1.675,8.16,1111122 
SCCF RECON,ioos:station:SCCF:12:1,2010-03-07T06:00:00Z,26.4966,-82.1479,1.608,8.06,1111122 
SCCF RECON,ioos:station:SCCF:12:1,2010-03-07T07:00:00Z,26.4966,-82.1479,1.586,8.04,1111122 
SCCF RECON,ioos:station:SCCF:12:1,2010-03-07T08:00:00Z,26.4966,-82.1479,1.621,8.02,1111122 
SCCF RECON,ioos:station:SCCF:12:1,2010-03-07T09:00:00Z,26.4966,-82.1479,1.7,7.96,1111122 
SCCF RECON,ioos:station:SCCF:12:1,2010-03-07T10:00:00Z,26.4966,-82.1479,1.778,7.89,1111122 
SCCF RECON,ioos:station:SCCF:12:1,2010-03-07T11:00:00Z,26.4966,-82.1479,1.841,7.82,1111122 
SCCF RECON,ioos:station:SCCF:12:1,2010-03-07T12:00:00Z,26.4966,-82.1479,1.9,7.89,1111122 
SCCF RECON,ioos:station:SCCF:12:1,2010-03-07T13:00:00Z,26.4966,-82.1479,1.941,7.84,1111122 
SCCF RECON,ioos:station:SCCF:12:1,2010-03-07T14:00:00Z,26.4966,-82.1479,1.952,7.98,1111122 
SCCF RECON,ioos:station:SCCF:12:1,2010-03-07T15:00:00Z,26.4966,-82.1479,1.938,7.99,1111122 
SCCF RECON,ioos:station:SCCF:12:1,2010-03-07T16:00:00Z,26.4966,-82.1479,1.946,8.07,1111122 
SCCF RECON,ioos:station:SCCF:12:1,2010-03-07T17:00:00Z,26.4966,-82.1479,1.969,8.08,1111122 
SCCF RECON,ioos:station:SCCF:12:1,2010-03-07T18:00:00Z,26.4966,-82.1479,2.02,8.11,1111122 
SCCF RECON,ioos:station:SCCF:12:1,2010-03-07T19:00:00Z,26.4966,-82.1479,2.092,8.13,1111122 
SCCF RECON,ioos:station:SCCF:12:1,2010-03-07T20:00:00Z,26.4966,-82.1479,2.159,8.16,1111122 
SCCF RECON,ioos:station:SCCF:12:1,2010-03-07T21:00:00Z,26.4966,-82.1479,2.213,8.21,1111122 
SCCF RECON,ioos:station:SCCF:12:1,2010-03-07T22:00:00Z,26.4966,-82.1479,2.23,8.19,1111122 
SCCF RECON,ioos:station:SCCF:12:1,2010-03-07T23:00:00Z,26.4966,-82.1479,2.219,8.21,1111122 
SCCF RECON,ioos:station:SCCF:12:1,2010-03-08T00:00:00Z,26.4966,-82.1479,2.179,8.2,1111122 
SCCF RECON,ioos:station:SCCF:12:1,2010-03-08T01:00:00Z,26.4966,-82.1479,2.106,8.2,1111122 
SCCF RECON,ioos:station:SCCF:12:1,2010-03-08T02:00:00Z,26.4966,-82.1479,2.034,8.16,1111122 
SCCF RECON,ioos:station:SCCF:12:1,2010-03-08T03:00:00Z,26.4966,-82.1479,1.955,8.12,1111122 
SCCF RECON,ioos:station:SCCF:12:1,2010-03-08T04:00:00Z,26.4966,-82.1479,1.882,8.11,1111122 
SCCF RECON,ioos:station:SCCF:12:1,2010-03-08T05:00:00Z,26.4966,-82.1479,1.812,8.02,1111122 
SCCF RECON,ioos:station:SCCF:12:1,2010-03-08T06:00:00Z,26.4966,-82.1479,1.733,7.94,1111122 
SCCF RECON,ioos:station:SCCF:12:1,2010-03-08T07:00:00Z,26.4966,-82.1479,1.662,7.97,1111122 
SCCF RECON,ioos:station:SCCF:12:1,2010-03-08T08:00:00Z,26.4966,-82.1479,1.636,7.99,1111122 
SCCF RECON,ioos:station:SCCF:12:1,2010-03-08T09:00:00Z,26.4966,-82.1479,1.658,8.27,1111122 
SCCF RECON,ioos:station:SCCF:12:1,2010-03-08T10:00:00Z,26.4966,-82.1479,1.73,8.12,1111122 
SCCF RECON,ioos:station:SCCF:12:1,2010-03-08T11:00:00Z,26.4966,-82.1479,1.811,7.99,1111122 
SCCF RECON,ioos:station:SCCF:12:1,2010-03-08T12:00:00Z,26.4966,-82.1479,1.9,8.02,1111122 
SCCF RECON,ioos:station:SCCF:12:1,2010-03-08T13:00:00Z,26.4966,-82.1479,1.99,7.99,1111122 
SCCF RECON,ioos:station:SCCF:12:1,2010-03-08T14:00:00Z,26.4966,-82.1479,2.05,8.16,1111122 
SCCF RECON,ioos:station:SCCF:12:1,2010-03-08T15:00:00Z,26.4966,-82.1479,2.08,8.13,1111122 
SCCF RECON,ioos:station:SCCF:12:1,2010-03-08T16:00:00Z,26.4966,-82.1479,2.08,8.04,1111122 
SCCF RECON,ioos:station:SCCF:12:1,2010-03-08T17:00:00Z,26.4966,-82.1479,2.058,8.04,1111122 
SCCF RECON,ioos:station:SCCF:12:1,2010-03-08T18:00:00Z,26.4966,-82.1479,2.08,8.08,1111122 
SCCF RECON,ioos:station:SCCF:12:1,2010-03-08T19:00:00Z,26.4966,-82.1479,2.101,8.12,1111122 
SCCF RECON,ioos:station:SCCF:12:1,2010-03-08T20:00:00Z,26.4966,-82.1479,2.14,8.14,1111122 
SCCF RECON,ioos:station:SCCF:12:1,2010-03-08T21:00:00Z,26.4966,-82.1479,2.194,8.08,1111122 
SCCF RECON,ioos:station:SCCF:12:1,2010-03-08T22:00:00Z,26.4966,-82.1479,2.24,8.26,1111122 
SCCF RECON,ioos:station:SCCF:12:1,2010-03-08T23:00:00Z,26.4966,-82.1479,2.25,8.2,1111122 
SCCF RECON,ioos:station:SCCF:12:1,2010-03-09T00:00:00Z,26.4966,-82.1479,2.22,8.27,1111122 
SCCF RECON,ioos:station:SCCF:12:1,2010-03-09T01:00:00Z,26.4966,-82.1479,2.19,8.33,1111122 
SCCF RECON,ioos:station:SCCF:12:1,2010-03-09T02:00:00Z,26.4966,-82.1479,2.143,8.19,1111122 
SCCF RECON,ioos:station:SCCF:12:1,2010-03-09T03:00:00Z,26.4966,-82.1479,2.099,8.17,1111122 
SCCF RECON,ioos:station:SCCF:12:1,2010-03-09T04:00:00Z,26.4966,-82.1479,2.028,8.16,1111122 
SCCF RECON,ioos:station:SCCF:12:1,2010-03-09T05:00:00Z,26.4966,-82.1479,1.93,8.13,1111122 
SCCF RECON,ioos:station:SCCF:12:1,2010-03-09T06:00:00Z,26.4966,-82.1479,1.84,8.1,1111122 
SCCF RECON,ioos:station:SCCF:12:1,2010-03-09T07:00:00Z,26.4966,-82.1479,1.76,8.18,1111122 
SCCF RECON,ioos:station:SCCF:12:1,2010-03-09T08:00:00Z,26.4966,-82.1479,1.69,8.19,1111122 
SCCF RECON,ioos:station:SCCF:12:1,2010-03-09T09:00:00Z,26.4966,-82.1479,1.67,8.09,1111122 
SCCF RECON,ioos:station:SCCF:12:1,2010-03-09T10:00:00Z,26.4966,-82.1479,1.74,8.09,1111122 
SCCF RECON,ioos:station:SCCF:12:1,2010-03-09T11:00:00Z,26.4966,-82.1479,1.835,8.04,1111122 
SCCF RECON,ioos:station:SCCF:12:1,2010-03-09T12:00:00Z,26.4966,-82.1479,1.92,7.86,1111122 
SCCF RECON,ioos:station:SCCF:12:1,2010-03-09T13:00:00Z,26.4966,-82.1479,2.0,7.95,1111122 
SCCF RECON,ioos:station:SCCF:12:1,2010-03-09T14:00:00Z,26.4966,-82.1479,2.06,7.87,1111122 
SCCF RECON,ioos:station:SCCF:12:1,2010-03-09T15:00:00Z,26.4966,-82.1479,2.107,7.98,1111122 
SCCF RECON,ioos:station:SCCF:12:1,2010-03-09T16:00:00Z,26.4966,-82.1479,2.121,8.04,1111122 
SCCF RECON,ioos:station:SCCF:12:1,2010-03-09T17:00:00Z,26.4966,-82.1479,2.19,7.98,1111122 
SCCF RECON,ioos:station:SCCF:12:1,2010-03-09T18:00:00Z,26.4966,-82.1479,2.18,8.08,1111122 
SCCF RECON,ioos:station:SCCF:12:1,2010-03-09T19:00:00Z,26.4966,-82.1479,2.156,8.11,1111122 
SCCF RECON,ioos:station:SCCF:12:1,2010-03-09T20:00:00Z,26.4966,-82.1479,2.13,8.04,1111122 
SCCF RECON,ioos:station:SCCF:12:1,2010-03-09T21:00:00Z,26.4966,-82.1479,2.131,8.04,1111122 
SCCF RECON,ioos:station:SCCF:12:1,2010-03-09T22:00:00Z,26.4966,-82.1479,2.155,8.11,1111122 
SCCF RECON,ioos:station:SCCF:12:1,2010-03-09T23:00:00Z,26.4966,-82.1479,2.21,8.13,1111122 
SCCF RECON,ioos:station:SCCF:12:1,2010-03-10T00:00:00Z,26.4966,-82.1479,2.28,8.06,1111122 
SCCF RECON,ioos:station:SCCF:12:1,2010-03-10T01:00:00Z,26.4966,-82.1479,2.31,8.01,1111122 
SCCF RECON,ioos:station:SCCF:12:1,2010-03-10T02:00:00Z,26.4966,-82.1479,2.28,8.03,1111122 
SCCF RECON,ioos:station:SCCF:12:1,2010-03-10T03:00:00Z,26.4966,-82.1479,2.23,8.04,1111122 
SCCF RECON,ioos:station:SCCF:12:1,2010-03-10T04:00:00Z,26.4966,-82.1479,2.156,8.05,1111122 
SCCF RECON,ioos:station:SCCF:12:1,2010-03-10T05:00:00Z,26.4966,-82.1479,2.069,7.99,1111122 
SCCF RECON,ioos:station:SCCF:12:1,2010-03-10T06:00:00Z,26.4966,-82.1479,1.96,7.91,1111122 
SCCF RECON,ioos:station:SCCF:12:1,2010-03-10T07:00:00Z,26.4966,-82.1479,1.87,7.85,1111122 
SCCF RECON,ioos:station:SCCF:12:1,2010-03-10T08:00:00Z,26.4966,-82.1479,1.772,7.89,1111122 
SCCF RECON,ioos:station:SCCF:12:1,2010-03-10T09:00:00Z,26.4966,-82.1479,1.7,7.88,1111122 
SCCF RECON,ioos:station:SCCF:12:1,2010-03-10T10:00:00Z,26.4966,-82.1479,1.68,7.85,1111122 
SCCF RECON,ioos:station:SCCF:12:1,2010-03-10T11:00:00Z,26.4966,-82.1479,1.74,7.79,1111122 
SCCF RECON,ioos:station:SCCF:12:1,2010-03-10T12:00:00Z,26.4966,-82.1479,1.86,7.72,1111122 
SCCF RECON,ioos:station:SCCF:12:1,2010-03-10T13:00:00Z,26.4966,-82.1479,1.97,7.74,1111122 
SCCF RECON,ioos:station:SCCF:12:1,2010-03-10T14:00:00Z,26.4966,-82.1479,2.05,7.73,1111122 
SCCF RECON,ioos:station:SCCF:12:1,2010-03-10T15:00:00Z,26.4966,-82.1479,2.102,7.8,1111122 
SCCF RECON,ioos:station:SCCF:12:1,2010-03-10T16:00:00Z,26.4966,-82.1479,2.14,7.88,1111122 
SCCF RECON,ioos:station:SCCF:12:1,2010-03-10T17:00:00Z,26.4966,-82.1479,2.156,7.91,1111122 
SCCF RECON,ioos:station:SCCF:12:1,2010-03-10T18:00:00Z,26.4966,-82.1479,2.145,7.96,1111122 
SCCF RECON,ioos:station:SCCF:12:1,2010-03-10T19:00:00Z,26.4966,-82.1479,2.11,7.8,1111122 
SCCF RECON,ioos:station:SCCF:12:1,2010-03-10T20:00:00Z,26.4966,-82.1479,2.084,7.9,1111122 
SCCF RECON,ioos:station:SCCF:12:1,2010-03-10T21:00:00Z,26.4966,-82.1479,2.06,7.89,1111122 
SCCF RECON,ioos:station:SCCF:12:1,2010-03-10T22:00:00Z,26.4966,-82.1479,2.087,7.82,1111122 
SCCF RECON,ioos:station:SCCF:12:1,2010-03-10T23:00:00Z,26.4966,-82.1479,2.139,7.9,1111122 
SCCF RECON,ioos:station:SCCF:12:1,2010-03-11T00:00:00Z,26.4966,-82.1479,2.188,7.88,1111122 
SCCF RECON,ioos:station:SCCF:12:1,2010-03-11T01:00:00Z,26.4966,-82.1479,2.244,7.83,1111122 
SCCF RECON,ioos:station:SCCF:12:1,2010-03-11T02:00:00Z,26.4966,-82.1479,2.32,7.73,1111122 
SCCF RECON,ioos:station:SCCF:12:1,2010-03-11T03:00:00Z,26.4966,-82.1479,2.31,7.76,1111122 
SCCF RECON,ioos:station:SCCF:12:1,2010-03-11T04:00:00Z,26.4966,-82.1479,2.26,7.81,1111122 
SCCF RECON,ioos:station:SCCF:12:1,2010-03-11T05:00:00Z,26.4966,-82.1479,2.178,7.94,1111122 
SCCF RECON,ioos:station:SCCF:12:1,2010-03-11T06:00:00Z,26.4966,-82.1479,2.08,7.86,1111122 
SCCF RECON,ioos:station:SCCF:12:1,2010-03-11T07:00:00Z,26.4966,-82.1479,1.961,7.83,1111122 
SCCF RECON,ioos:station:SCCF:12:1,2010-03-11T08:00:00Z,26.4966,-82.1479,1.848,7.8,1111122 
SCCF RECON,ioos:station:SCCF:12:1,2010-03-11T09:00:00Z,26.4966,-82.1479,1.759,7.72,1111122 
SCCF RECON,ioos:station:SCCF:12:1,2010-03-11T10:00:00Z,26.4966,-82.1479,1.692,7.67,1111122 
SCCF RECON,ioos:station:SCCF:12:1,2010-03-11T11:00:00Z,26.4966,-82.1479,1.694,7.69,1111122 
SCCF RECON,ioos:station:SCCF:12:1,2010-03-11T12:00:00Z,26.4966,-82.1479,1.763,7.57,1111122 
SCCF RECON,ioos:station:SCCF:12:1,2010-03-11T13:00:00Z,26.4966,-82.1479,1.88,7.48,1111122 
SCCF RECON,ioos:station:SCCF:12:1,2010-03-11T14:00:00Z,26.4966,-82.1479,1.997,7.53,1111122 
SCCF RECON,ioos:station:SCCF:12:1,2010-03-11T15:00:00Z,26.4966,-82.1479,2.102,7.64,1111122 
SCCF RECON,ioos:station:SCCF:12:1,2010-03-11T16:00:00Z,26.4966,-82.1479,2.172,7.6,1111122 
SCCF RECON,ioos:station:SCCF:12:1,2010-03-11T17:00:00Z,26.4966,-82.1479,2.212,7.57,1111122 
SCCF RECON,ioos:station:SCCF:12:1,2010-03-11T18:00:00Z,26.4966,-82.1479,2.196,7.67,1111122 
SCCF RECON,ioos:station:SCCF:12:1,2010-03-11T19:00:00Z,26.4966,-82.1479,2.148,7.61,1111122 
SCCF RECON,ioos:station:SCCF:12:1,2010-03-11T20:00:00Z,26.4966,-82.1479,2.108,7.64,1111122 